Location: Fort Worth, Tx
(32.7431°N, 97.3695°W)
Time: 13:25:39
(UTC-04:00)

Transit 2A - Pass Details

Date: 24 February 2024
Orbit: 596 x 956 km, 66.7° (Epoch: 20 April)

Event Time Altitude Azimuth Distance (km) Brightness Sun altitude
Rises 22:00:06 0° 249° (WSW) 2,879 9.7 -33.8°
Reaches altitude 10° 22:03:26 10° 276° (W) 1,944 8.9 -34.5°
Maximum altitude 22:05:39 14° 307° (NW) 1,704 8.4 -34.9°
Enters shadow 22:06:38 13° 322° (NW) 1,751 8.3 -35.1°
